Home > Weather > Asuncion > Past weeks

Flag for Paraguay Past Weather in Asuncion, Paraguay — Yesterday and Last 2 Weeks

Now
77 °F

Passing clouds.


Feels Like: 79 °F
Forecast: 75 / 92 °F
Wind: 9 mph from East

Location: Asuncion / Aeropuerto

Current Time: Jul 30, 2016 at 8:34:40 PM

Latest Report: Jul 30, 2016 at 8:00 PM


Visibility: N/A

Pressure: 29.89 "Hg

Humidity: 54%

Dew Point: 59 °F

Location of AsuncionLocation

Past Weather in Asuncion — Graph

°F

Asuncion Temperature Yesterday

Maximum temperature yesterday: 79 °F (at 3:00 PM)
Minimum temperature yesterday: 57 °F (at 1:00 AM)
Average temperature yesterday: 65 °F

High & Low Weather Summary for the Past Weeks

 TemperatureHumidityPressure
High90 °F (Jul 25, 2:00 PM)100% (Jul 17, 6:00 AM)30.33 "Hg (Jul 17, 6:00 AM)
Low39 °F (Jul 17, 6:00 AM)23% (Jul 17, 5:00 PM)29.74 "Hg (Jul 25, 3:00 PM)
Average61 °F67%30.08 "Hg
* Reported Jul 15 7:00 PM — Jul 30 7:00 PM, Asuncion, Weather by CustomWeather, © 2016

Note: Actual official high and low records may vary slightly from our data, if they occured in-between our weather recording intervals... More about our weather records

Advertising

Asuncion Weather History for the Previous 24 Hours

Scroll right to see more
 ConditionsComfort  
Time TempWeatherWind HumidityBarometerVisibility
7:00 PM
Sat, Jul 30
79 °FClear.8 mph54%29.86 "Hg10 mi
6:00 PM79 °FClear.5 mph54%29.86 "Hg10 mi
5:00 PM84 °FClear.8 mph45%29.86 "Hg10 mi
4:00 PM86 °FPassing clouds.13 mph40%29.86 "HgN/A
3:00 PM86 °FPassing clouds.13 mph40%29.89 "HgN/A
2:00 PM86 °FPassing clouds.14 mph40%29.89 "HgN/A
1:00 PM84 °FPassing clouds.16 mph43%29.92 "HgN/A
12:00 PM84 °FPassing clouds.13 mph43%29.98 "HgN/A
11:00 AM81 °FPassing clouds.12 mph51%30.01 "HgN/A
10:00 AM79 °FSunny.15 mph51%30.01 "Hg10 mi
9:30 AM79 °FPassing clouds.12 mph51%30.01 "HgN/A
9:00 AM75 °FPassing clouds.12 mph54%30.01 "HgN/A
8:30 AM73 °FPassing clouds.10 mph57%30.01 "HgN/A
8:00 AM73 °FPassing clouds.10 mph61%30.01 "HgN/A
7:30 AM72 °FPassing clouds.9 mph65%29.98 "HgN/A
7:00 AM70 °FPassing clouds.8 mph64%29.98 "HgN/A
6:00 AM70 °FPassing clouds.7 mph69%29.95 "HgN/A
5:00 AM70 °FPassing clouds.8 mph69%29.95 "HgN/A
4:00 AM72 °FPassing clouds.8 mph65%29.95 "HgN/A
3:00 AM70 °FPassing clouds.7 mph69%29.95 "HgN/A
2:00 AM70 °FClear.6 mph69%29.95 "Hg10 mi
1:00 AM70 °FClear.3 mph73%29.98 "Hg10 mi
12:00 AM68 °FClear.No wind78%29.98 "Hg10 mi
11:00 PM
Fri, Jul 29
66 °FClear.2 mph83%29.98 "Hg5 mi
10:00 PM64 °FClear.No wind83%29.98 "Hg4 mi
9:00 PM64 °FClear.5 mph83%29.95 "Hg4 mi
8:00 PM61 °FFog.No wind88%29.95 "Hg3 mi
Weather by CustomWeather, © 2016

See weather overviewHow to use our weather pages